When you browse on this site, cookies collect data to enhance your experience and personalize the content and advertising you see.
Visit our Privacy Policy to learn more. By continuing to use the site, you agree to this use of cookies and data.
  • In France
  • List of Countries
  • For 7 days
  • Water Temperature
  • Satellite Maps
  • Weather Map
  • Weather Widgets
  • user-avatar
    Login

    Hourly Weather Wlora

    Today, 12 December, Wednesday

    Time Temperature Precipitation Wind Pressure Humidity
    00:00 +3°C° 0.1 mm 5 mps 763 mmHg 59%
    01:00 +4°C° 0.1 mm 4 mps 763 mmHg 57%
    02:00 +4°C° 0.1 mm 4 mps 763 mmHg 55%
    03:00 +4°C° 0.1 mm 4 mps 763 mmHg 53%
    04:00 +4°C° 0.1 mm 4 mps 764 mmHg 51%
    05:00 +4°C° 0 mm 3 mps 764 mmHg 49%
    06:00 +4°C° 0 mm 3 mps 764 mmHg 48%
    07:00 +3°C° 0 mm 3 mps 764 mmHg 46%
    08:00 +5°C° 0 mm 3 mps 764 mmHg 41%
    09:00 +7°C° 0 mm 2 mps 765 mmHg 35%
    10:00 +9°C° 0 mm 2 mps 765 mmHg 30%
    11:00 +9°C° 0 mm 2 mps 765 mmHg 28%
    12:00 +11°C° 0 mm 1 mps 765 mmHg 27%
    13:00 +11°C° 0 mm 1 mps 765 mmHg 26%
    14:00 +10°C° 0 mm 1 mps 765 mmHg 30%
    15:00 +9°C° 0 mm 1 mps 765 mmHg 35%
    16:00 +8°C° 0 mm 1 mps 765 mmHg 39%
    17:00 +8°C° 0 mm 1 mps 765 mmHg 39%
    18:00 +7°C° 0 mm 1 mps 765 mmHg 38%
    19:00 +7°C° 0 mm 1 mps 765 mmHg 38%
    20:00 +6°C° 0 mm 2 mps 765 mmHg 38%
    21:00 +5°C° 0 mm 2 mps 765 mmHg 39%
    22:00 +4°C° 0 mm 3 mps 765 mmHg 39%
    23:00 +4°C° 0 mm 3 mps 765 mmHg 39%

    Tomorrow, 13 December, Thursday

    Time Temperature Precipitation Wind Pressure Humidity
    00:00 +4°C° 0 mm 3 mps 765 mmHg 39%
    01:00 +4°C° 0 mm 4 mps 765 mmHg 40%
    02:00 +5°C° 0.1 mm 4 mps 765 mmHg 39%
    03:00 +5°C° 0.1 mm 4 mps 764 mmHg 39%
    04:00 +5°C° 0.1 mm 4 mps 764 mmHg 39%
    05:00 +5°C° 0.2 mm 4 mps 764 mmHg 40%
    06:00 +6°C° 0.2 mm 4 mps 764 mmHg 41%
    07:00 +6°C° 0.2 mm 4 mps 764 mmHg 42%
    08:00 +6°C° 0.2 mm 4 mps 763 mmHg 47%
    09:00 +7°C° 0.2 mm 5 mps 763 mmHg 51%
    10:00 +7°C° 0.2 mm 5 mps 763 mmHg 56%
    11:00 +7°C° 0.1 mm 4 mps 763 mmHg 60%
    12:00 +7°C° 0.1 mm 4 mps 762 mmHg 64%
    13:00 +7°C° 0.1 mm 4 mps 762 mmHg 68%
    14:00 +7°C° 0 mm 4 mps 762 mmHg 71%
    15:00 +7°C° 0 mm 4 mps 762 mmHg 73%
    16:00 +7°C° 0 mm 4 mps 762 mmHg 76%
    17:00 +6°C° 0 mm 4 mps 762 mmHg 77%
    18:00 +6°C° 0 mm 5 mps 762 mmHg 78%
    19:00 +6°C° 0 mm 5 mps 762 mmHg 79%
    20:00 +5°C° 0 mm 6 mps 762 mmHg 78%
    21:00 +5°C° 0 mm 6 mps 762 mmHg 77%
    22:00 +5°C° 0 mm 6 mps 762 mmHg 77%
    23:00 +5°C° 0.1 mm 6 mps 762 mmHg 77%

    Day after tomorrow, 14 December, Friday

    Time Temperature Precipitation Wind Pressure Humidity
    00:00 +5°C° 0.1 mm 7 mps 762 mmHg 77%
    01:00 +5°C° 0.1 mm 7 mps 761 mmHg 77%
    02:00 +5°C° 0.5 mm 7 mps 761 mmHg 79%
    03:00 +6°C° 0.5 mm 7 mps 761 mmHg 81%
    04:00 +6°C° 0.5 mm 7 mps 760 mmHg 83%
    05:00 +6°C° 0.7 mm 7 mps 760 mmHg 84%
    06:00 +8°C° 0.7 mm 7 mps 760 mmHg 84%
    07:00 +8°C° 0.7 mm 7 mps 760 mmHg 85%
    08:00 +9°C° 0.3 mm 8 mps 760 mmHg 83%
    09:00 +10°C° 0.3 mm 8 mps 760 mmHg 80%
    10:00 +11°C° 0.3 mm 8 mps 761 mmHg 78%
    11:00 +11°C° 0.3 mm 8 mps 760 mmHg 78%
    12:00 +12°C° 0.3 mm 8 mps 760 mmHg 78%
    13:00 +13°C° 0.3 mm 8 mps 759 mmHg 78%
    14:00 +12°C° 0.3 mm 8 mps 759 mmHg 80%
    15:00 +11°C° 0.3 mm 8 mps 759 mmHg 81%
    16:00 +11°C° 0.3 mm 8 mps 759 mmHg 83%
    17:00 +10°C° 0.3 mm 8 mps 759 mmHg 83%
    18:00 +10°C° 0.3 mm 8 mps 759 mmHg 83%
    19:00 +10°C° 0.3 mm 8 mps 760 mmHg 82%
    20:00 +10°C° 0.1 mm 8 mps 760 mmHg 82%
    21:00 +9°C° 0.1 mm 8 mps 760 mmHg 81%
    22:00 +9°C° 0.1 mm 8 mps 759 mmHg 80%
    23:00 +9°C° 0.2 mm 8 mps 759 mmHg 79%

    15 December, Saturday

    Time Temperature Precipitation Wind Pressure Humidity
    00:00 +9°C° 0.2 mm 8 mps 759 mmHg 79%
    01:00 +8°C° 0.2 mm 9 mps 759 mmHg 78%
    02:00 +9°C° 0.4 mm 8 mps 759 mmHg 78%
    03:00 +9°C° 0.4 mm 8 mps 758 mmHg 78%
    04:00 +9°C° 0.4 mm 8 mps 758 mmHg 78%
    05:00 +9°C° 0.6 mm 8 mps 758 mmHg 79%
    06:00 +9°C° 0.6 mm 8 mps 758 mmHg 79%
    07:00 +9°C° 0.6 mm 7 mps 758 mmHg 80%
    08:00 +10°C° 0.3 mm 7 mps 759 mmHg 77%
    09:00 +11°C° 0.3 mm 7 mps 759 mmHg 75%
    10:00 +12°C° 0.3 mm 7 mps 759 mmHg 72%
    11:00 +14°C° 0.1 mm 6 mps 759 mmHg 70%
    12:00 +14°C° 0.1 mm 6 mps 758 mmHg 67%
    13:00 +15°C° 0.1 mm 5 mps 758 mmHg 64%
    14:00 +15°C° 0.1 mm 4 mps 758 mmHg 67%
    15:00 +14°C° 0.1 mm 4 mps 758 mmHg 71%
    16:00 +13°C° 0.1 mm 3 mps 758 mmHg 74%
    17:00 +13°C° 0.1 mm 3 mps 759 mmHg 75%
    18:00 +12°C° 0.1 mm 3 mps 759 mmHg 76%
    19:00 +12°C° 0.1 mm 3 mps 759 mmHg 77%
    20:00 +11°C° 0.2 mm 3 mps 760 mmHg 77%
    21:00 +11°C° 0.2 mm 4 mps 760 mmHg 76%
    22:00 +11°C° 0.2 mm 4 mps 760 mmHg 76%
    23:00 +10°C° 0.4 mm 5 mps 760 mmHg 75%

    16 December, Sunday

    Time Temperature Precipitation Wind Pressure Humidity
    00:00 +10°C° 0.4 mm 6 mps 760 mmHg 75%
    01:00 +9°C° 0.4 mm 7 mps 760 mmHg 74%
    02:00 +9°C° 0.4 mm 7 mps 760 mmHg 77%
    03:00 +9°C° 0.4 mm 8 mps 760 mmHg 80%
    04:00 +8°C° 0.4 mm 9 mps 761 mmHg 83%
    05:00 +9°C° 0.6 mm 8 mps 761 mmHg 85%
    06:00 +9°C° 0.6 mm 8 mps 761 mmHg 87%
    07:00 +9°C° 0.6 mm 7 mps 761 mmHg 90%
    08:00 +9°C° 0.3 mm 7 mps 762 mmHg 90%
    09:00 +9°C° 0.3 mm 7 mps 762 mmHg 90%
    10:00 +9°C° 0.3 mm 7 mps 762 mmHg 90%
    11:00 +10°C° 0.1 mm 7 mps 762 mmHg 87%
    12:00 +10°C° 0.1 mm 7 mps 762 mmHg 84%
    13:00 +11°C° 0.1 mm 7 mps 762 mmHg 82%
    14:00 +10°C° 0 mm 7 mps 762 mmHg 83%
    15:00 +10°C° 0 mm 8 mps 763 mmHg 84%
    16:00 +10°C° 0 mm 8 mps 763 mmHg 85%
    17:00 +9°C° 0 mm 8 mps 763 mmHg 85%
    18:00 +9°C° 0 mm 8 mps 764 mmHg 86%
    19:00 +9°C° 0 mm 8 mps 764 mmHg 87%
    20:00 +7°C° 0 mm 8 mps 765 mmHg 86%
    21:00 +8°C° 0 mm 7 mps 765 mmHg 85%
    22:00 +8°C° 0 mm 7 mps 766 mmHg 84%
    23:00 +8°C° 0 mm 7 mps 766 mmHg 83%

    17 December, Monday

    Time Temperature Precipitation Wind Pressure Humidity
    00:00 +8°C° 0 mm 6 mps 766 mmHg 81%
    01:00 +7°C° 0 mm 6 mps 766 mmHg 79%
    02:00 +7°C° 0 mm 6 mps 766 mmHg 78%
    03:00 +7°C° 0 mm 5 mps 766 mmHg 77%
    04:00 +7°C° 0 mm 5 mps 766 mmHg 76%
    05:00 +7°C° 0 mm 5 mps 766 mmHg 75%
    06:00 +8°C° 0 mm 4 mps 767 mmHg 75%
    07:00 +8°C° 0 mm 4 mps 767 mmHg 75%
    08:00 +10°C° 0 mm 3 mps 767 mmHg 70%
    09:00 +12°C° 0 mm 3 mps 767 mmHg 66%
    10:00 +15°C° 0 mm 2 mps 767 mmHg 61%
    11:00 +16°C° 0 mm 2 mps 767 mmHg 59%
    12:00 +16°C° 0 mm 2 mps 767 mmHg 58%
    13:00 +17°C° 0 mm 2 mps 766 mmHg 56%
    14:00 +16°C° 0 mm 1 mps 766 mmHg 61%
    15:00 +15°C° 0 mm 1 mps 767 mmHg 67%
    16:00 +14°C° 0 mm 1 mps 767 mmHg 72%
    17:00 +13°C° 0 mm 1 mps 767 mmHg 75%
    18:00 +13°C° 0 mm 1 mps 767 mmHg 77%
    19:00 +12°C° 0 mm 1 mps 767 mmHg 79%
    20:00 +12°C° 0 mm 1 mps 767 mmHg 80%
    21:00 +12°C° 0 mm 2 mps 767 mmHg 82%
    22:00 +10°C° 0 mm 2 mps 767 mmHg 83%
    23:00 +10°C° 0 mm 3 mps 767 mmHg 84%
    Show more